This demonstration page uses our WeatherBlox Daily Observations layout. Learn more.

38.88101, -77.10428

Hourly Observations for June 15, 2017

Temp ( °F °C ) Dew Point ( °F °C ) Humidity (%) Winds ( mph kmh ) Pressure ( in mb ) Visibility ( mi km ) Precip ( " mm )
12:52 am 00:52 Clear 75 23.9 65 18.3 71 71 SSE 5 7 29.97 1015 10 16.09344 0 0
1:52 am 01:52 Clear 74 23.3 64 17.8 71 71 Calm 29.97 1015 10 16.09344 0 0
2:52 am 02:52 Mostly Cloudy 73 22.8 64 17.8 74 74 SSE 6 9 29.97 1015 10 16.09344 0 0
3:52 am 03:52 Cloudy 73 22.8 64 17.8 74 74 E 5 7 29.97 1015 10 16.09344 0 0
4:52 am 04:52 Cloudy 73 22.8 64 17.8 74 74 ESE 6 9 29.97 1015 10 16.09344 0 0
5:52 am 05:52 Cloudy 72 22.2 64 17.8 76 76 E 7 11 29.94 1014 10 16.09344 0 0
6:52 am 06:52 Cloudy 72 22.2 64 17.8 76 76 E 6 9 29.97 1015 10 16.09344 0 0
7:52 am 07:52 Cloudy 73 22.8 64 17.8 74 74 E 3 6 30 1016 10 16.09344 0 0
8:52 am 08:52 Cloudy 76 24.4 64 17.8 67 67 Calm 30 1016 10 16.09344 0 0
9:52 am 09:52 Cloudy 78 25.6 63 17.2 60 60 E 5 7 29.97 1015 10 16.09344 0 0
10:52 am 10:52 Mostly Cloudy 81 27.2 62 16.7 53 53 E 7 11 29.97 1015 10 16.09344 0 0
11:52 am 11:52 Cloudy 83 28.3 57 13.9 41 41 ESE 8 13 29.97 1015 10 16.09344 0 0
12:52 pm 12:52 Cloudy 84 28.9 57 13.9 40 40 ESE 10 17 29.97 1015 10 16.09344 0 0
1:52 pm 13:52 Cloudy 85 29.4 60 15.6 43 43 E 9 15 29.97 1015 10 16.09344 0 0
2:52 pm 14:52 Mostly Cloudy 84 28.9 65 18.3 53 53 ESE 13 20 29.94 1014 10 16.09344 0 0
3:52 pm 15:52 Mostly Sunny 84 28.9 65 18.3 53 53 ESE 12 19 29.94 1014 10 16.09344 0 0
4:52 pm 16:52 Mostly Sunny 84 28.9 66 18.9 55 55 ESE 12 19 29.91 1013 10 16.09344 0 0
5:52 pm 17:52 Mostly Sunny 83 28.3 66 18.9 57 57 SE 12 19 29.88 1012 10 16.09344 0 0
6:52 pm 18:52 Partly Cloudy 82 27.8 66 18.9 58 58 SE 14 22 29.88 1012 10 16.09344 0 0
7:52 pm 19:52 Mostly Cloudy 79 26.1 67 19.4 67 67 SE 9 15 29.91 1013 10 16.09344 0 0
8:52 pm 20:52 Mostly Cloudy 78 25.6 68 20 71 71 SE 10 17 29.91 1013 10 16.09344 0 0
9:52 pm 21:52 Partly Cloudy 76 24.4 68 20 77 77 SSE 7 11 29.94 1014 10 16.09344 0 0
9:59 pm 21:59 Mostly Cloudy 76 24.4 68 20 77 77 SE 8 13 29.94 1014 10 16.09344 0 0
10:52 pm 22:52 Mostly Cloudy 75 23.9 67 19.4 76 76 ESE 9 15 29.94 1014 10 16.09344 0 0
11:12 pm 23:12 Mostly Clear 74 23.3 67 19.4 79 79 ESE 8 13 29.94 1014 10 16.09344 0 0
11:52 pm 23:52 Partly Cloudy 74 23.3 66 18.9 76 76 ESE 10 17 29.94 1014 10 16.09344 0 0

Powered by AerisWeather